User: anonymous   Login
Location: Fiddletown
(38.4917°N, 120.6633°W)
Time: 14:32:47
(UTC-08:00)
Language:

Envisat - Orbit

View from above orbital plane
View from above orbital plane
View from above satellite
View from above satellite

Ground track
Ground track

The orbit data is extracted from the following two-line orbital elements,

1 27386U 02009A   17352.44157761 -.00000005  00000-0  12129-4 0  9995
2 27386  98.2092  29.7990 0001482  82.9548 277.1812 14.37911048827558
Epoch (UTC): 18 December 2017 10:35:52
Eccentricity: 0.0001482
inclination: 98.2092°
perigee height: 764 km
apogee height: 766 km
right ascension of ascending node: 29.7990°
argument of perigee: 82.9548°
revolutions per day: 14.37911048
mean anomaly at epoch: 277.1812°
orbit number at epoch: 82755

The dashed part of the orbit path shows where the satellite is in the earth's shadow,  

DLR